Location: Newark
(37.8333°N, 119.5000°W)
Time: 11:55:19
(UTC+00:00)

SR - All Passes

Search period start: 21 August 2019 00:00
Search period end: 31 August 2019 00:00
Orbit: 578 x 878 km, 66.7° (Epoch: 20 August)

Date Brightness Start Highest point End Pass type
(mag) Time Alt. Az. Time Alt. Az. Time Alt. Az.
21 Aug - 04:29:44 10° N 04:33:35 19° NE 04:37:34 10° E visible
21 Aug - 06:10:35 10° NNW 06:16:11 73° WSW 06:22:01 10° SSE visible
21 Aug - 20:39:33 10° SW 20:43:53 67° WNW 20:48:34 10° NNE daylight
22 Aug - 03:42:20 10° NNE 03:43:22 10° NE 03:44:26 10° NE visible
22 Aug - 05:21:00 10° NNW 05:26:31 59° ENE 05:32:17 10° SE visible
22 Aug - 07:04:13 10° WNW 07:08:13 20° WSW 07:12:18 10° SSW visible
22 Aug - 19:50:07 10° S 19:54:19 52° ESE 19:58:51 10° NE daylight
22 Aug - 21:33:47 10° W 21:36:46 17° NW 21:39:53 10° N daylight
23 Aug - 04:31:45 10° N 04:36:42 32° NE 04:41:51 10° ESE visible
23 Aug - 06:13:37 10° NW 06:18:51 39° WSW 06:24:15 10° S visible
23 Aug - 19:01:35 10° SSE 19:04:58 22° ESE 19:08:32 10° NE daylight
23 Aug - 20:42:45 10° WSW 20:46:45 33° NW 20:51:03 10° N daylight
24 Aug - 03:42:56 10° N 03:46:41 18° NE 03:50:32 10° E visible
24 Aug - 05:23:41 10° NNW 05:29:19 78° WSW 05:35:11 10° SSE visible
24 Aug - 19:52:37 10° SW 19:56:59 72° WNW 20:01:43 10° NNE daylight
25 Aug - 04:34:08 10° NNW 04:39:39 56° ENE 04:45:24 10° SE visible
25 Aug - 06:17:13 10° WNW 06:21:22 21° WSW 06:25:39 10° SSW visible
25 Aug - 19:03:15 10° S 19:07:26 48° ESE 19:11:57 10° NE daylight
25 Aug - 20:46:41 10° W 20:49:49 18° NW 20:53:08 10° N daylight
26 Aug - 03:44:55 10° N 03:49:48 30° NE 03:54:53 10° ESE visible
26 Aug - 05:26:41 10° NW 05:32:00 42° WSW 05:37:28 10° S visible
26 Aug - 18:14:49 10° SSE 18:18:06 21° ESE 18:21:33 10° ENE daylight
26 Aug - 19:55:45 10° WSW 19:59:50 35° NW 20:04:14 10° NNE daylight
27 Aug - 02:56:09 10° N 02:59:46 17° NE 03:03:29 10° E visible
27 Aug - 04:36:48 10° NNW 04:42:28 82° WSW 04:48:21 10° SSE visible
27 Aug - 06:22:56 10° W 06:23:47 10° WSW 06:24:38 10° WSW visible
27 Aug - 19:05:41 10° SSW 19:10:04 78° WNW 19:14:51 10° NNE daylight
27 Aug - 20:52:22 10° NW 20:53:05 10° NW 20:53:48 10° NNW daylight
28 Aug - 03:47:17 10° NNW 03:52:47 53° ENE 03:58:30 10° SE visible
28 Aug - 05:30:12 10° WNW 05:34:33 22° WSW 05:38:58 10° SSW visible
28 Aug - 18:16:24 10° S 18:20:33 45° ESE 18:25:03 10° NE daylight
28 Aug - 19:59:36 10° W 20:02:53 19° NW 20:06:22 10° N daylight
29 Aug - 02:58:04 10° N 03:02:55 29° NE 03:07:56 10° ESE visible
29 Aug - 04:39:46 10° NW 04:45:09 44° WSW 04:50:42 10° S visible
29 Aug - 17:28:05 10° SSE 17:31:15 20° ESE 17:34:34 10° ENE daylight
29 Aug - 19:08:46 10° SW 19:12:55 38° NW 19:17:24 10° NNE daylight
30 Aug - 02:09:21 10° N 02:12:51 17° NE 02:16:26 10° E daylight
30 Aug - 03:49:54 10° NNW 03:55:36 87° WSW 04:01:30 10° SSE visible
30 Aug - 05:35:17 10° W 05:36:57 11° WSW 05:38:37 10° WSW visible
30 Aug - 18:18:46 10° SSW 18:23:10 84° WNW 18:27:59 10° NNE daylight
30 Aug - 20:04:47 10° WNW 20:06:08 11° NW 20:07:31 10° NNW daylight
